Volver al catálogo

OPS 2222

ActivoMilitarMEO
NORAD 3334·PAYLOAD·🇺🇸 United States

Lanzado Aug 6, 1968 desde Cape Canaveral Space Force Station

Loading…

Próximos Pases (próximas 24 horas)

TLE

ActualizadoSource: Space-Track

Época: Sep 14, 2026, 13:21 UTC

1 03334U 68063A   26257.55694416 -.00000202  00000-0  00000-0 0  9993
2 03334   5.6935 280.9439 0896567 235.0810 313.8789  0.99251914 27017

Sigue OPS 2222 en tiempo real con AllMySat

Download on the App Store